Погода в Ильинке

Россия / Кемеровская область (Кузбасс)     53°54′04″N   87°09′38″E
темп.,
°C
ветер,
м/с
пор.,
м/с
влажн.,
%
обл.,
%
осадки,
мм/ч
давл.,
гПа
погр.,
м
28 февраля, вс
вс2801:00−21ююз2597100 0.2 1040148
04:00−25ю229798 0.0 104024
07:00−27ююв129966 0.0 104119
10:00−22юв129695 0.0 1039126
13:00−15ююв248597 0.0 1036414
16:00−11ююв257572 0.0 1033827
19:00−12юв228486 0.0 103021
22:00−12юв3889100 0.0 1028231
1 марта, пн
пн101:00−11вюв3696100 0.4 1025214
04:00−11юв2496100 0.5 1021145
07:00−10юв3796100 1.6 1018228
10:00−7ююв3795100 1.4 1016298
13:00−4ю4796100 2.9 1013506
16:00−3ююз51095100 1.4 1011764
19:00−3юз41291100 1.9 1010847
22:00−3ююз41394100 0.1 1008673
2 марта, вт
вт201:00−3юз51490100 0.1 1007862
04:00−2юз71489100 0.8 1007946
07:00−3зюз61388100 0.8 1010697
10:00−3зюз51187100 0.0 10121097
13:00−4зюз6985100 0.3 10141005
16:00−5зюз5887100 0.4 1015835
19:00−8зюз3694100 0.7 1016270
22:00−11юз2396100 0.3 101794
3 марта, ср
ср301:00−12ююз129699 0.4 101621
04:00−12зюз1197100 0.2 101621
07:00−12ю0196100 0.7 101720
10:00−10ю1193100 0.3 1016154
13:00−7ююз1288100 0.4 1017392
16:00−4юз1289100 0.1 1017402
19:00−7зюз4890100 0.2 1019296
22:00−10юз3595100 0.1 1022162
4 марта, чт
чт401:00−11ююз3795100 0.5 1025269
04:00−13ю3596100 0.3 1026168
07:00−14ююв2696100 0.6 1028239
10:00−12юв3591100 0.1 1027255
13:00−7ююв3686100 0.1 1025498
16:00−4ю357999 0.0 1023897
19:00−6юв238499 0.0 102232
22:00−8юв2285100 0.0 102123